Location: Ingoldesthorpe
(52.8667°N, 0.5167°E)
Time: 23:46:27
(UTC+00:00)

Cosmos 1408 Rocket - Pass Details

Date: 19 May 2025
Orbit: 594 x 625 km, 82.6° (Epoch: 18 June)

Event Time Altitude Azimuth Distance (km) Brightness Sun altitude
Rises 22:53:47 0° 350° (N) 2,889 8.8 -16.0°
Reaches altitude 10° 22:56:02 10° 352° (N) 1,975 7.5 -16.1°
Maximum altitude 23:00:24 72° 78° (ENE) 641 3.6 -16.2°
Enters shadow 23:02:24 31° 156° (SSE) 1,074 4.2 -16.3°
